Regional Weather Roundup
Issued by NWS Wakefield, VA

Home | Current Version | Previous Version | Text Only | Print | Product List | Glossary Off
Versions: 1 2 3 4 5 6 7 8 9 10 11 12 13 14 15 16 17 18 19 20 21 22 23 24 25 26 27

000
ASUS41 KAKQ 210615
RWRAKQ

REGIONAL WEATHER ROUNDUP
NATIONAL WEATHER SERVICE WAKEFIELD VA
200 AM EDT MON AUG 21 2017

Note: "fair" indicates few or no clouds below 12,000 feet with no
significant weather and/or obstructions to visibility. * = Denotes
station may not report precipitation (e.g., rain,snow,etc.),
thunder or fog.

VAZ042-051-052>054-056-210700-
NORTHERN VIRGINIA

CITY           SKY/WX    TMP DP  RH WIND       PRES   REMARKS
WASH NATIONAL  MOCLDY    76  71  85 SE5       30.19F
DULLES         CLOUDY    71  68  90 SE3       30.19F
FORT BELVOIR   MOCLDY    71  69  94 CALM      30.18S
QUANTICO       CLOUDY    78  71  79 CALM      30.18F
FREDERICKSBRG* PTCLDY    72  72 100 CALM      30.17F
STAFFORD*      PTCLDY    68  68 100 CALM      30.22F
WARRENTON      MOCLDY    71  67  88 CALM      30.19F
CULPEPER*      CLEAR     71  70  99 CALM      30.20S
MANASSAS*      CLOUDY    71  70  96 CALM      30.19F
LEESBURG*      PTCLDY    70  70 100 CALM      30.21S
WINCHESTER     CLOUDY    68  64  88 CALM      30.19F
FRONT ROYAL*   CLOUDY    70  70 100 CALM      30.18S
LURAY*         CLEAR     70  70 100 CALM      30.20S
$$

VAZ048-049-060>072-079>083-210700-
CENTRAL AND SOUTH CENTRAL VIRGINIA

CITY           SKY/WX    TMP DP  RH WIND       PRES   REMARKS
RICHMOND       PTCLDY    73  71  93 SE3       30.18F
CHESTERFIELD*  FAIR      74  71  91 CALM      30.19F
PETERSBURG*    CLEAR     69  69 100 CALM      30.19F FOG
HANOVER        CLEAR     70  67  90 CALM      30.19F
TAPPAHANNOCK*  CLEAR    N/A N/A N/A CALM      30.19F
QUINTON*       FAIR      70  70 100 E3        30.18F
CHARLOTTSVILLE CLOUDY    74  70  87 CALM      30.19F
GORDONSVILLE*  PTCLDY    70  70 100 CALM      30.18F
ORANGE*        PTCLDY    70  68  94 CALM      30.19F
LOUISA*        MOCLDY    68  66  94 CALM      30.19S
BUMPASS*       FAIR      72  71  98 CALM      30.18F
FARMVILLE*     CLEAR     74  73  95 CALM      30.17S
CREWE*         FAIR      71  67  86 CALM      30.19S
FORT PICKETT*  FAIR     N/A N/A N/A SE5       30.19S
CHASE CITY*    FAIR      74  74 100 CALM      30.19S
CLARKSVILLE*   FAIR      73  73 100 CALM      30.18S
SOUTH HILL*    CLEAR     73  73 100 CALM      30.24S
LAWRENCEVILLE* FAIR      74  73  97 CALM      30.18F
EMPORIA*         N/A     72  72 100 CALM      30.20S
$$

VAZ088>098-210700-
SOUTHEAST VIRGINIA

CITY           SKY/WX    TMP DP  RH WIND       PRES   REMARKS
NORFOLK        CLEAR     77  74  90 NE3       30.19R
VIRGINIA BEACH CLEAR     73  71  93 CALM      30.18S
NORFOLK NAVAL  CLEAR     76  73  91 CALM      30.20S
WEST POINT*    PTCLDY    72  71  96 CALM      30.20F
SALUDA*        FAIR      73  73 100 CALM      30.18F
NEWPORT NEWS   CLEAR     72  71  97 CALM      30.18F FOG
LANGLEY AFB    CLEAR     74  73  98 SE3       30.18S
FORT EUSTIS    CLEAR     75  72  91 CALM      30.16S
WILLIAMSBURG*  CLEAR     75  75 100 CALM      30.19S
HR EXEC AP*    MOCLDY    70  64  83 CALM      30.17S
FRANKLIN*      PTCLDY    73  71  95 CALM      30.18F
US460-WAKEFLD  CLEAR     72  72 100 CALM      30.18F FOG
$$

VAZ020-022-025-037-045-210700-
WEST CENTRAL AND SOUTHWEST VIRGINIA

CITY           SKY/WX    TMP DP  RH WIND       PRES   REMARKS
STAUNTON*      CLEAR     66  65  96 CALM      30.23S
WAYNESBORO*    PTCLDY    73  69  87 S3        30.23F
HOT SPRINGS VA CLOUDY    68  59  73 CALM      30.35S
LYNCHBURG      MOCLDY    72  68  87 CALM      30.21S
DANVILLE       CLEAR     72  72 100 CALM      30.18F
SOUTH BOSTON*  FAIR      71  70  95 CALM      30.17F
MARTINSVILLE   PTCLDY    69  68  96 CALM      30.22S
ROANOKE        CLEAR     74  68  81 CALM      30.22F
BLACKSBURG     CLEAR     67  66  96 CALM      30.29S
DUBLIN*        PTCLDY    67  66  97 NW3       30.27S
MARION*        CLEAR     69  55  60 CALM      30.30S
HILLSVILLE*    PTCLDY    71  61  72 CALM      30.28S
RICHLANDS*     FAIR      73  58  59 S3        30.27F
WISE*          PTCLDY    68  61  77 SW3       30.28S
ABINGDON*      CLEAR     71  68  90 CALM      30.24F
$$

MDZ021>025-VAZ099-100-210700-
SOUTHERN MARYLAND AND THE DELMARVA PENINSULA

CITY           SKY/WX    TMP DP  RH WIND       PRES   REMARKS
PATUXENT RIVER PTCLDY    69  68  96 CALM      30.18F
BAY BRIDGE APT CLEAR     72  68  88 CALM      30.19S
LEONARDTOWN    CLEAR     70  66  88 CALM      30.20F
DOVER          CLEAR     69  69 100 CALM      30.18S
GEORGETOWN     CLEAR     68  65  90 CALM      30.20F
EASTON         CLEAR    N/A N/A N/A CALM      30.23S
CAMBRIDGE      NOT AVBL
SALISBURY      CLEAR     67  67 100 CALM      30.20S
OCEAN CITY     CLEAR     66  66 100 CALM      30.20S FOG
WALLOPS ISLAND CLEAR     72  71  97 CALM      30.20S
ACCOMACK*      CLEAR     70  69  99 CALM      30.19F FOG
$$

NCZ012>017-030>032-210700-
NORTH CENTRAL AND EASTERN NORTH CAROLINA

CITY           SKY/WX    TMP DP  RH WIND       PRES   REMARKS
ROANOKE RAPIDS FOG       72  72 100 CALM      30.18S VSB 1
RALEIGH        PTCLDY    75  71  87 CALM      30.19S
ELIZABETH CITY PTCLDY    75  75 100 CALM      30.18S
AHOSKIE*         N/A     73  73  99 CALM      30.18F FOG
EDENTON*       CLEAR     77  75  94 CALM      30.18F
CURRITUCK*     CLEAR     73  72  95 CALM      30.19S
KILL DEVIL HLS PTCLDY    76  75  98 CALM      30.17S
MANTEO         MOCLDY    75  74  96 CALM      30.18S
CAPE HATTERAS  PTCLDY    79  78  97 NE3       30.16F
TARBORO*       NOT AVBL
GOLDSBORO      PTCLDY    77  73  87 CALM      30.18S
WASHINGTON     PTCLDY    74  73  96 CALM      30.18S
GREENVILLE     CLOUDY    73  73 100 CALM      30.19S
NEW BERN       CLOUDY    74  74 100 CALM      30.17F
WILMINGTON     MOCLDY    77  75  93 CALM      30.14F
$$

VAZ048-210700-
ELSEWHERE

CITY           SKY/WX    TMP DP  RH WIND       PRES   REMARKS
HARRISBURG PA  MOCLDY    69  65  86 CALM      30.18S
BALTIMORE      MOCLDY    67  67 100 CALM      30.18F
ANNAPOLIS      CLEAR     74  74 100 CALM      30.18S
ANDREWS AFB    PTCLDY    71  67  87 CALM      30.19S
PHILADELPHIA   PTCLDY    72  65  78 SW3       30.19S
HENDERSON NC   CLEAR     72  69  88 S3        30.19S
GREENSBORO     MOCLDY    76  70  82 S7        30.18S
ROCKY MOUNT    CLEAR     71  71 100 CALM      30.18S FOG
$$

VAZ100-210700-
MARINE

STATION/POSITION TIME  TEMP    WIND        PRES    WAVE   SWELL
                       AIR SEA DIR/SP/G            HT/PER HT/PER
                 (UTC) (F)     (DEG/KT/KT) (MB)    (FT/S) (FT/S)
BRANDYWINE LGT   0542          230/  9/  9 1022.7F
CAPE MAY NJ      0548          240/  8/  9 1021.9S
LEWES DE         0542          220/  4/  6 1022.2F
15NM E FENWICK I 0550   77 78  240/  6/  8 1023.0S   1/ 8   2/ 8
OCEAN-CITY-INLET 0548          300/  2/  3 1022.9S
WACHAPREAGUE VA  0548          250/  1/  2 1022.5F
THOMAS POINT MD  0600   78 81  170/  6/  7   N/A
GOOSES REEF MD   0600   80 80  200/  6/  8 1022.7    0
COVE POINT MD    0548          200/  5/  6 1022.8F
SOLOMONS ISLAND  0542          190/  2/  5   N/A
BISHOPS HEAD MD  0548          170/  3/  4 1022.3F
PINEY POINT MD   0542          200/  5/  6   N/A
POTOMAC MD       0600   79 83  220/  6/  8 1021.3
CAMBRIDGE MD     0542                      1023.2F
LEWISETTA VA     0548          200/  4/  5 1021.8F
RAPPAHANNOCK LGT 0548          140/  3/  4 1023.0F
STINGRAY PT      0600   80 82  190/  6/  8 1022.3    0
YORK RVR RNG VA  0548          160/  5/  5 1022.6S
YORKTOWN VA      0548          130/  3/  3 1021.9R
JAMESTOWN VA     0600      85  140/  6/ 10   N/A
DOMINION TERM VA 0548          150/  4/  5 1022.3R
KIPTOPEKE VA     0536          120/  2/  2   N/A
CHES BAY BRIDGE  0548           90/  2/  2 1022.2R
CAPE HENRY VA    0548          120/  1/  2   N/A
WILLOUBY STN VA  0542          100/  2/  3 1022.3R
S CRANEY ISL VA  0548          110/  2/  2 1022.0R
CAPE HENRY BUOY  0600      81                N/A     2/ 8
1ST LANDING BUOY 0600   78 79              1022.2    1
64NM E OF VA BCH 0550   78 78   80/  4/  6 1022.5F   2/ 8   2/ 8
DUCK PIER NC     0542          120/  5/  6 1021.5F
44100 DUCK FRF   0535      81                N/A     2/ 9
44056 DUCK FRF   0600      79                N/A     2/ 9
OREGON INLET NC  0542           40/  3/  4 1021.7F
HATTERAS NC      0542           30/  3/  4 1021.3F
DIAMOND SHLS NC  0550   82 85   30/  6/  6 1021.1F   2/ 8   2/ 8
CAPE LOOKOUT NC  0600   81      60/  3/  3 1020.7F
$$




USA.gov is the U.S. government's official web portal to all federal, state and local government web resources and services.